TimeAKDT,TemperatureF,Dew PointF,Humidity,Sea Level PressureIn,VisibilityMPH,Wind Direction,Wind SpeedMPH,Gust SpeedMPH,PrecipitationIn,Events,Conditions,WindDirDegrees,DateUTC
12:16 AM,60.8,51.8,72,30.15,10.0,Calm,Calm,-,N/A,,Clear,0,2013-07-31 08:16:00
12:36 AM,60.8,51.8,72,30.16,10.0,Calm,Calm,-,N/A,,Clear,0,2013-07-31 08:36:00
12:56 AM,60.8,53.6,77,30.16,10.0,Calm,Calm,-,N/A,,Clear,0,2013-07-31 08:56:00
1:16 AM,60.8,53.6,77,30.16,10.0,Calm,Calm,-,N/A,,Clear,0,2013-07-31 09:16:00
1:36 AM,60.8,51.8,72,30.16,10.0,Calm,Calm,-,N/A,,Clear,0,2013-07-31 09:36:00
1:56 AM,59.0,51.8,77,30.16,10.0,Calm,Calm,-,N/A,,Clear,0,2013-07-31 09:56:00
2:16 AM,59.0,51.8,77,30.16,10.0,Calm,Calm,-,N/A,,Clear,0,2013-07-31 10:16:00
2:36 AM,57.2,51.8,82,30.16,10.0,WNW,3.5,-,N/A,,Clear,300,2013-07-31 10:36:00
2:56 AM,57.2,48.2,72,30.17,10.0,Calm,Calm,-,N/A,,Clear,0,2013-07-31 10:56:00
3:16 AM,57.2,50.0,77,30.16,10.0,West,3.5,-,N/A,,Clear,280,2013-07-31 11:16:00
3:36 AM,57.2,50.0,77,30.17,10.0,Calm,Calm,-,N/A,,Clear,0,2013-07-31 11:36:00
3:56 AM,57.2,51.8,82,30.17,10.0,Calm,Calm,-,N/A,,Clear,0,2013-07-31 11:56:00
4:16 AM,57.2,50.0,77,30.17,10.0,Calm,Calm,-,N/A,,Clear,0,2013-07-31 12:16:00
4:36 AM,57.2,50.0,77,30.17,10.0,Calm,Calm,-,N/A,,Clear,0,2013-07-31 12:36:00
4:56 AM,55.4,50.0,82,30.16,10.0,NW,3.5,-,N/A,,Clear,310,2013-07-31 12:56:00
5:16 AM,55.4,48.2,77,30.17,10.0,Calm,Calm,-,N/A,,Clear,0,2013-07-31 13:16:00
5:36 AM,55.4,48.2,77,30.17,10.0,Calm,Calm,-,N/A,,Clear,0,2013-07-31 13:36:00
5:56 AM,57.2,50.0,77,30.17,10.0,WNW,4.6,-,N/A,,Clear,300,2013-07-31 13:56:00
6:16 AM,55.4,50.0,82,30.17,10.0,NW,3.5,-,N/A,,Clear,310,2013-07-31 14:16:00
6:36 AM,55.4,50.0,82,30.17,10.0,NW,3.5,-,N/A,,Clear,310,2013-07-31 14:36:00
6:56 AM,57.2,50.0,77,30.18,10.0,NW,3.5,-,N/A,,Clear,310,2013-07-31 14:56:00
7:16 AM,57.2,50.0,77,30.18,10.0,Calm,Calm,-,N/A,,Clear,0,2013-07-31 15:16:00
7:36 AM,57.2,50.0,77,30.17,10.0,Calm,Calm,-,N/A,,Clear,0,2013-07-31 15:36:00
7:56 AM,57.2,50.0,77,30.17,10.0,NNW,3.5,-,N/A,,Clear,330,2013-07-31 15:56:00
8:16 AM,59.0,50.0,72,30.17,10.0,NNW,3.5,-,N/A,,Clear,330,2013-07-31 16:16:00
8:36 AM,59.0,50.0,72,30.17,10.0,NW,4.6,-,N/A,,Clear,310,2013-07-31 16:36:00
8:56 AM,60.8,51.8,72,30.17,10.0,NW,5.8,-,N/A,,Clear,320,2013-07-31 16:56:00
9:16 AM,62.6,51.8,68,30.17,10.0,WNW,4.6,-,N/A,,Clear,300,2013-07-31 17:16:00
9:36 AM,62.6,51.8,68,30.17,10.0,NNW,4.6,-,N/A,,Clear,330,2013-07-31 17:36:00
9:56 AM,64.4,51.8,64,30.17,10.0,North,3.5,-,N/A,,Clear,350,2013-07-31 17:56:00
10:16 AM,62.6,51.8,68,30.17,10.0,North,5.8,-,N/A,,Clear,350,2013-07-31 18:16:00
10:36 AM,62.6,51.8,68,30.16,10.0,NNW,4.6,-,N/A,,Clear,330,2013-07-31 18:36:00
10:56 AM,62.6,53.6,72,30.16,10.0,NW,3.5,-,N/A,,Clear,320,2013-07-31 18:56:00
11:16 AM,66.2,53.6,64,30.16,10.0,NNW,4.6,-,N/A,,Clear,330,2013-07-31 19:16:00
11:36 AM,68.0,53.6,60,30.15,10.0,NW,5.8,-,N/A,,Clear,320,2013-07-31 19:36:00
11:56 AM,68.0,53.6,60,30.15,10.0,NNW,4.6,-,N/A,,Clear,330,2013-07-31 19:56:00
12:16 PM,68.0,55.4,64,30.14,10.0,NW,4.6,-,N/A,,Clear,320,2013-07-31 20:16:00
12:36 PM,71.6,55.4,57,30.14,10.0,NW,5.8,-,N/A,,Clear,310,2013-07-31 20:36:00
12:56 PM,71.6,53.6,53,30.13,10.0,NW,5.8,-,N/A,,Clear,310,2013-07-31 20:56:00
1:16 PM,71.6,55.4,57,30.13,10.0,WNW,4.6,-,N/A,,Clear,300,2013-07-31 21:16:00
1:36 PM,73.4,55.4,53,30.13,10.0,NW,5.8,-,N/A,,Clear,310,2013-07-31 21:36:00
1:56 PM,73.4,55.4,53,30.12,10.0,NW,5.8,-,N/A,,Clear,320,2013-07-31 21:56:00
2:16 PM,75.2,55.4,50,30.12,10.0,NW,5.8,-,N/A,,Clear,310,2013-07-31 22:16:00
2:36 PM,75.2,55.4,50,30.11,10.0,NW,5.8,-,N/A,,Clear,310,2013-07-31 22:36:00
2:56 PM,75.2,55.4,50,30.11,10.0,NW,5.8,-,N/A,,Clear,310,2013-07-31 22:56:00
3:16 PM,75.2,55.4,50,30.10,10.0,NW,6.9,-,N/A,,Clear,310,2013-07-31 23:16:00
3:36 PM,77.0,55.4,47,30.09,10.0,NW,5.8,-,N/A,,Clear,320,2013-07-31 23:36:00
3:56 PM,77.0,55.4,47,30.09,10.0,NW,8.1,-,N/A,,Clear,310,2013-07-31 23:56:00
4:16 PM,77.0,57.2,50,30.08,10.0,NW,8.1,-,N/A,,Clear,310,2013-08-01 00:16:00
4:36 PM,75.2,57.2,53,30.08,10.0,NW,5.8,-,N/A,,Clear,320,2013-08-01 00:36:00
4:56 PM,78.8,57.2,47,30.07,10.0,NW,6.9,-,N/A,,Clear,310,2013-08-01 00:56:00
5:16 PM,75.2,57.2,53,30.07,10.0,WNW,6.9,-,N/A,,Clear,300,2013-08-01 01:16:00
5:36 PM,75.2,57.2,53,30.07,10.0,NW,8.1,-,N/A,,Clear,310,2013-08-01 01:36:00
5:56 PM,71.6,57.2,60,30.06,10.0,NW,6.9,-,N/A,,Clear,310,2013-08-01 01:56:00
6:16 PM,73.4,57.2,57,30.06,10.0,NW,5.8,-,N/A,,Clear,320,2013-08-01 02:16:00
6:36 PM,71.6,57.2,60,30.06,10.0,NW,4.6,-,N/A,,Clear,310,2013-08-01 02:36:00
6:56 PM,69.8,57.2,64,30.05,10.0,NW,5.8,-,N/A,,Clear,310,2013-08-01 02:56:00
7:16 PM,69.8,57.2,64,30.05,10.0,NW,4.6,-,N/A,,Clear,310,2013-08-01 03:16:00
7:36 PM,69.8,55.4,60,30.05,10.0,WNW,4.6,-,N/A,,Clear,300,2013-08-01 03:36:00
7:56 PM,71.6,55.4,57,30.05,10.0,WNW,3.5,-,N/A,,Clear,290,2013-08-01 03:56:00
8:16 PM,71.6,55.4,57,30.05,10.0,NW,5.8,-,N/A,,Clear,310,2013-08-01 04:16:00
8:36 PM,68.0,53.6,60,30.05,10.0,WNW,4.6,-,N/A,,Clear,300,2013-08-01 04:36:00
8:56 PM,68.0,55.4,64,30.05,10.0,WNW,3.5,-,N/A,,Clear,290,2013-08-01 04:56:00
9:16 PM,68.0,53.6,60,30.05,10.0,WNW,4.6,-,N/A,,Clear,290,2013-08-01 05:16:00
9:36 PM,66.2,53.6,64,30.05,10.0,Calm,Calm,-,N/A,,Clear,0,2013-08-01 05:36:00
9:56 PM,66.2,53.6,64,30.05,10.0,Calm,Calm,-,N/A,,Clear,0,2013-08-01 05:56:00
10:16 PM,64.4,53.6,68,30.05,10.0,Calm,Calm,-,N/A,,Clear,0,2013-08-01 06:16:00
10:36 PM,64.4,53.6,68,30.05,10.0,Calm,Calm,-,N/A,,Clear,0,2013-08-01 06:36:00
10:56 PM,64.4,53.6,68,30.05,10.0,Calm,Calm,-,N/A,,Clear,0,2013-08-01 06:56:00
11:16 PM,62.6,53.6,72,30.05,10.0,Calm,Calm,-,N/A,,Clear,0,2013-08-01 07:16:00
11:36 PM,60.8,53.6,77,30.05,10.0,Calm,Calm,-,N/A,,Clear,0,2013-08-01 07:36:00
11:56 PM,62.6,51.8,68,30.05,10.0,WNW,5.8,-,N/A,,Clear,300,2013-08-01 07:56:00